Volver al catálogo

FENGYUN 1C DEB

ActivoPO
NORAD 31441·DEBRIS·🇨🇳 China

Lanzado May 10, 1999 desde Taiyuan Satellite Launch Center

Loading…

Próximos Pases (próximas 24 horas)

TLE

EnvejeciendoSource: Space-Track

Época: Sep 7, 2026, 00:01 UTC

1 31441U 99025BUD 26250.00119345  .00035386  00000-0  25736-2 0  9996
2 31441  99.2764 164.0715 0058085 202.5397 157.3270 15.02360438680810

Sigue FENGYUN 1C DEB en tiempo real con AllMySat

Download on the App Store